COSMOS 2434 [GLONASS-M] 
1 32393U 07065A   19265.38620962  .00000075  00000-0  00000+0 0  9998
2 32393  64.6824 275.6536 0002342 161.9389 334.0030  2.13103063 91387
COSMOS 2435 [GLONASS-M] 
1 32394U 07065B   19266.09545287  .00000076  00000-0  00000+0 0  9995
2 32394  64.6850 275.6252 0022345 351.6271   8.3805  2.13114857 91334
COSMOS 2436 [GLONASS-M] 
1 32395U 07065C   19265.99512262  .00000076  00000-0  10000-3 0  9996
2 32395  64.6899 275.6881 0015068 349.4643 306.3814  2.13104427 91320
SL-12 R/B(2)            
1 32396U 07065D   19264.45854851  .00000071  00000-0  00000+0 0  9990
2 32396  64.6801 275.2412 0029313 188.7059 249.4487  2.13393371 91504
SL-12 R/B(AUX MOTOR)    
1 32398U 07065F   19266.47146287 -.00000018  00000-0  80157-4 0  9991
2 32398  64.6263 314.1313 5797203  12.5294 357.3489  4.23695617181503
SL-12 R/B(AUX MOTOR)    
1 32399U 07065G   19264.15862000 -.00000030  00000-0  75067-4 0  9991
2 32399  64.7162 311.6897 5813640   1.7934   7.1255  4.24062821181649